Location: Buckenweiler
(49.0667°N, 10.2500°E)
Time: 20:15:51
(UTC+00:00)

BREEZE-M DEB (TANK) - Pass Details

Date: 18 January 2026
Orbit: 290 x 14649 km, 49.5° (Epoch: 14 February)

Event Time Altitude Azimuth Distance (km) Brightness Sun altitude
Rises 03:15:26 0° 289° (WNW) 12,498 8.8 -37.1°
Enters shadow 03:16:17 - 289° (WNW) 12,282 8.7 -37.0°
Exits shadow 03:48:56 64° 227° (SW) 1,613 4.3 -31.7°
Maximum altitude 03:49:14 65° 215° (SW) 1,558 4.2 -31.6°
Drops below altitude 10° 03:54:04 10° 134° (SE) 2,277 5.9 -30.9°
Sets 03:55:28 0° 130° (SE) 2,852 6.6 -30.6°
